Simultaneous Nadir Overpasses (SNOs) Predictions

Prediction of SNOs between METOP-A and NOAA-19 Satellite Orbit:

Table of predicted SNOs for the next 14.0 days since TLE Epoch: 12/6/2011
Index Date Time (METOP-A) METOP-A Lat,Lon NOAA-19 Lat,Lon Distance(km) Time Diff (sec)
1 12/11/2011 07:03:14 75.46, 72.81 75.44, 60.47 344.37 33
2 12/11/2011 07:54:12 -74.66,-122.19 -74.63,-129.88 226.49 51
3 12/11/2011 08:45:16 73.48, 42.19 73.54, 40.14 65.06 69
4 12/11/2011 09:36:06 -73.06,-151.44 -73.04,-151.46 2.10 72
5 12/11/2011 10:26:47 73.01, 15.79 73.01, 15.82 0.95 45
6 12/11/2011 11:17:29 -72.98,-176.93 -73.01,-176.91 2.82 30
7 12/11/2011 12:08:09 72.99, -9.59 72.98, -9.63 1.56 2
8 12/11/2011 12:58:51 -72.96, 157.68 -72.98, 157.63 2.51 13
9 12/11/2011 13:49:32 72.91, -35.09 72.95, -35.09 3.86 40
10 12/11/2011 14:40:14 -72.89, 132.18 -72.90, 132.28 3.29 54
11 12/11/2011 15:31:00 72.58, -61.12 72.62, -59.90 40.46 71
12 12/11/2011 16:21:53 -72.00, 105.05 -72.01, 108.58 121.24 63
13 12/11/2011 17:12:59 70.64, -90.01 70.64, -81.74 304.80 39




NCC Satellite Simultaneous Nadir Overpasses (SNOs) Prediction Service
